Theta_e
302 301 302 302 302 302 302 302 302 303 303 303 303 303 303 304 304 303 306 308 308 312 313 309 308 307 307 304 301 300 303 305 307 307 308 307 307 306 305 307 307 306 308 309 323
301 301 301 301 301 301 301 302 302 302 302 302 303 303 303 303 302 302 299 306 311 312 315 315 310 307 306 305 302 302 303 304 306 307 307 309 309 308 307 306 306 309 313 312 323
300 301 300 300 300 300 301 301 301 301 301 302 302 302 302 302 301 304 312 310 312 312 314 315 315 307 306 302 302 302 305 305 306 306 305 306 308 307 306 306 304 306 312 314 321
300 300 299 299 300 300 300 300 300 301 301 301 302 302 302 301 295 306 312 313 313 312 314 314 310 308 306 307 303 303 303 305 305 305 308 308 307 306 303 306 305 303 311 317 321
299 299 298 299 301 301 300 300 300 300 300 301 301 302 302 300 301 299 305 304 301 304 313 313 309 307 308 306 306 305 304 304 305 305 304 305 305 306 304 303 302 306 314 319 322
299 298 298 299 299 299 299 299 299 299 299 300 300 301 301 301 298 299 302 302 303 307 310 309 309 308 308 308 307 306 305 306 305 305 304 305 305 305 304 303 303 307 312 315 319
299 298 298 299 299 299 299 299 298 299 299 299 299 299 300 300 298 299 298 298 299 300 306 309 310 307 307 308 306 307 308 308 307 306 306 306 308 308 305 305 303 300 307 313 316
297 298 298 299 299 299 299 298 298 298 299 297 299 299 301 301 301 301 301 301 303 303 302 310 310 310 307 305 306 307 306 310 309 308 307 308 312 309 308 307 306 301 300 306 312
298 298 298 298 298 297 297 298 297 297 296 297 294 301 301 301 301 302 300 297 294 297 306 306 309 309 305 310 309 306 311 308 309 308 308 309 311 310 307 307 308 307 302 301 303
297 297 298 298 298 297 298 298 295 294 295 294 295 299 299 301 299 294 293 294 295 295 296 306 309 310 311 310 309 309 308 307 308 307 308 309 309 310 308 308 307 305 301 302 301
296 297 298 298 298 298 298 295 293 293 294 293 293 294 294 294 294 294 294 295 295 295 295 296 307 310 308 309 308 307 307 308 307 308 309 310 310 310 308 306 305 304 302 300 301
297 298 298 298 298 297 297 294 294 294 295 294 295 294 294 294 294 294 295 296 295 295 297 300 303 304 307 308 309 310 309 308 307 306 307 308 309 308 307 308 309 307 306 302 301
297 297 297 297 297 296 295 295 294 295 295 294 294 294 294 294 294 295 296 297 298 297 296 296 299 304 303 306 308 308 309 309 309 307 307 307 309 308 306 305 306 306 305 305 303
297 297 297 297 296 296 295 294 294 295 294 292 293 294 295 296 296 297 296 297 298 296 297 296 296 295 298 304 306 308 306 307 308 309 310 307 311 308 308 308 308 309 307 305 301
296 297 297 297 296 295 294 294 295 293 288 289 292 295 293 294 293 293 294 297 297 297 299 297 298 300 301 302 307 308 306 307 308 310 310 310 311 309 306 308 308 309 309 306 305
296 296 296 295 295 294 293 294 293 286 283 291 291 292 292 293 293 293 293 296 298 299 299 298 298 304 305 305 307 307 307 307 308 310 310 308 310 307 306 307 307 307 307 307 307
296 296 295 294 293 293 294 291 284 284 288 288 291 291 293 293 294 295 296 294 297 298 294 300 299 298 299 301 302 304 309 310 310 310 310 305 308 307 304 305 306 306 305 306 306
296 295 292 293 293 294 293 285 282 281 285 290 292 293 294 294 293 292 294 296 297 300 300 302 298 296 300 300 300 304 307 309 311 310 306 305 308 308 305 305 301 301 302 304 303
295 293 293 292 294 294 290 282 282 287 293 293 292 292 292 294 296 290 291 294 295 299 299 300 298 298 299 302 300 302 305 306 306 286 295 300 303 305 303 302 303 304 302 304 303
294 292 291 293 295 293 287 288 283 291 292 291 292 294 294 294 295 293 293 294 299 300 300 299 298 301 302 303 303 304 305 308 308 310 309 303 300 303 298 302 302 302 301 299 298
293 287 291 293 293 286 283 281 287 291 291 292 293 293 294 295 296 295 294 296 298 298 298 297 298 299 306 302 299 305 305 302 306 307 306 307 306 295 300 298 296 296 296 294 294
293 288 290 292 286 277 285 282 291 290 291 291 294 295 296 296 297 295 296 297 296 298 295 298 299 297 301 302 299 301 302 302 302 298 297 296 298 285 284 285 286 290 293 292 291
294 286 291 293 290 283 282 286 289 289 290 287 294 295 296 297 297 293 296 296 296 295 296 298 299 300 301 304 304 303 300 300 297 295 299 301 299 283 282 287 288 291 290 288 288
292 291 285 289 288 289 288 285 284 289 289 292 293 294 293 292 291 294 296 296 295 295 299 299 299 302 302 302 303 304 304 304 304 302 295 299 297 291 292 290 288 287 289 288 286
292 291 285 292 288 289 284 287 290 285 288 291 290 292 294 294 289 285 290 294 293 295 294 293 293 298 299 294 297 300 297 296 303 304 308 295 298 295 294 296 294 282 287 287 288
293 292 290 286 290 290 288 286 290 290 288 290 291 292 293 294 294 294 294 294 295 292 292 290 295 294 295 295 297 297 293 295 294 290 287 289 301 291 288 293 292 296 291 285 287
292 291 291 290 289 286 287 289 290 290 291 291 291 292 291 292 292 294 295 295 295 295 294 295 295 293 294 293 296 294 293 293 294 292 292 294 293 290 288 290 290 289 291 290 291
Wind_Speed
25 25 24 25 25 26 27 27 27 27 27 27 27 27 28 29 32 31 15 23 13 8 7 8 5 9 9 3 5 4 3 7 10 12 12 2 5 4 4 3 2 7 6 3 27
25 26 27 28 28 28 28 29 30 29 29 29 29 28 29 30 34 24 30 24 20 19 16 10 3 4 3 7 5 6 6 11 13 16 6 4 2 2 2 5 4 2 1 5 26
25 26 27 28 28 28 29 30 31 31 31 31 30 28 27 29 11 8 6 8 15 11 21 21 13 5 6 4 6 7 18 12 13 9 9 6 4 4 4 3 8 10 7 11 17
24 26 28 27 28 29 30 31 33 33 34 34 31 28 25 18 8 2 3 10 6 11 9 9 7 5 6 11 6 7 10 19 12 9 3 5 3 4 7 8 2 8 7 11 16
25 27 27 27 29 30 32 33 34 35 35 35 30 26 22 5 13 23 20 26 31 19 8 8 8 5 7 6 7 14 2 7 17 17 9 6 8 8 7 11 8 5 9 16 17
24 28 27 28 29 31 32 33 35 35 38 35 33 25 16 21 15 12 11 20 19 15 13 13 8 10 6 9 14 3 13 22 12 8 5 11 13 6 7 9 7 8 12 11 15
27 28 28 29 30 32 34 36 37 36 38 34 34 28 17 29 11 23 32 34 33 25 12 23 20 6 4 5 8 14 18 17 16 8 7 5 18 21 9 11 9 10 10 14 17
28 27 27 29 29 33 35 38 39 39 33 34 26 22 13 12 20 28 27 27 17 23 21 23 24 16 7 5 5 4 4 17 18 13 7 10 27 8 19 18 20 12 10 10 15
27 26 28 30 31 33 36 38 40 31 31 21 18 3 9 6 6 11 6 16 33 23 16 17 10 8 5 15 10 7 17 13 10 5 8 16 21 13 10 15 21 17 14 13 15
26 28 29 30 31 34 37 38 30 22 13 11 7 3 6 7 5 32 41 30 11 15 15 10 7 11 13 13 21 26 12 4 7 9 15 14 28 12 14 19 18 14 12 14 13
28 28 30 31 32 35 39 25 8 5 8 10 18 23 28 41 26 23 31 20 16 12 19 19 15 23 28 25 25 23 17 16 12 7 10 23 28 19 13 7 10 10 9 12 15
27 29 30 31 33 35 21 5 11 13 15 16 22 24 37 28 18 27 15 4 3 7 11 12 25 32 27 20 22 25 24 23 10 10 9 15 22 9 10 13 18 16 16 12 9
29 31 31 32 34 19 14 21 17 21 8 18 12 11 7 6 8 11 8 3 8 10 14 20 28 16 28 28 26 25 25 24 21 4 14 3 23 17 7 8 9 8 14 13 15
30 31 31 34 18 18 17 19 21 12 5 7 3 6 2 3 5 7 10 6 5 10 12 15 26 26 25 21 30 28 28 24 22 14 19 10 20 18 18 13 12 19 15 14 10
30 31 31 31 29 7 18 21 16 2 5 6 5 2 8 5 7 23 13 5 20 19 6 11 13 17 20 30 23 26 23 23 22 17 16 10 9 14 9 9 16 21 18 13 16
28 32 34 28 22 17 14 16 3 4 7 7 5 10 16 25 19 8 7 5 7 12 13 25 15 9 12 5 15 20 8 16 13 13 20 21 17 22 7 13 12 16 21 13 16
29 33 35 19 7 16 14 5 4 3 8 8 20 22 21 27 14 3 5 5 4 4 4 5 18 23 14 11 10 6 12 9 10 12 16 17 15 22 9 23 28 24 13 14 14
29 33 33 20 7 7 3 5 3 5 8 12 17 27 20 11 6 3 7 8 3 5 6 4 8 6 11 21 9 9 12 8 10 4 12 6 9 11 23 26 7 9 12 14 9
28 29 23 6 4 3 3 3 6 5 6 14 25 7 6 5 5 5 4 4 4 2 2 5 6 8 10 5 20 8 11 1 1 1 4 3 4 7 5 10 15 18 12 19 10
23 14 14 4 4 1 2 6 5 6 18 17 18 8 11 13 5 3 3 5 3 4 1 3 8 5 2 5 6 4 7 6 9 5 9 3 3 5 3 13 14 12 9 7 8
9 3 4 5 7 3 2 7 7 14 14 5 12 17 15 10 5 3 5 6 4 6 3 3 4 6 5 5 8 9 4 3 2 2 2 1 4 7 9 8 9 9 6 6 9
4 2 2 10 2 2 2 5 11 17 11 10 9 15 13 5 4 3 5 4 7 6 7 5 3 5 8 2 4 3 5 6 3 4 2 4 6 2 1 3 2 7 9 6 2
3 3 2 1 3 2 5 8 5 5 7 5 5 7 16 7 6 4 4 6 8 8 5 3 3 5 7 0 1 3 2 3 4 3 7 5 5 4 4 6 4 5 7 3 0
3 3 3 1 1 3 4 7 5 6 10 7 13 12 14 9 2 7 8 6 12 12 13 4 3 4 5 8 4 3 2 2 12 3 3 6 7 7 9 6 7 5 5 3 1
1 4 4 5 3 5 2 5 10 6 5 8 5 6 18 8 5 3 5 12 5 5 5 3 3 3 12 9 3 5 7 7 3 1 3 4 2 4 10 8 6 5 5 3 2
3 4 1 3 2 2 4 5 12 7 3 9 6 20 16 12 14 20 14 11 8 3 4 4 4 5 6 6 7 4 11 8 8 5 4 5 2 9 9 11 7 7 5 3 2
5 5 3 2 2 1 4 6 13 15 11 10 17 19 12 14 10 18 18 18 15 12 7 3 3 4 4 2 3 5 9 6 3 6 3 7 6 12 10 11 10 11 8 5 3
Wind_Direction
6 4 3 1 358 355 352 349 346 343 340 337 336 333 331 326 317 312 263 248 237 253 291 255 225 203 186 213 191 138 181 203 210 218 227 62 180 197 170 213 214 187 159 303 158
0 359 358 356 354 351 349 345 341 339 337 334 332 330 330 329 318 284 293 263 246 255 261 240 252 195 228 191 205 175 214 219 223 223 227 228 187 224 203 166 229 223 240 146 151
357 354 353 351 349 347 344 341 337 335 333 331 329 328 327 332 315 254 1 51 232 272 256 243 240 200 223 206 201 205 234 227 236 238 225 228 234 211 185 244 220 216 174 165 163
355 350 348 347 345 342 340 337 334 332 329 327 326 324 323 324 284 327 157 96 16 335 290 200 214 205 212 219 223 239 220 231 238 240 228 216 196 212 182 228 229 238 163 169 175
350 344 344 343 340 339 336 334 330 328 327 324 325 328 327 274 250 263 281 286 297 290 243 213 216 198 229 207 225 249 241 225 231 240 225 256 229 228 222 243 247 113 156 185 189
346 342 342 340 337 334 331 330 326 325 323 318 316 317 301 265 269 289 304 309 313 283 252 215 213 218 258 230 225 229 225 244 252 243 222 232 254 191 234 247 239 174 194 198 202
341 341 340 338 336 332 329 326 323 319 315 310 308 302 269 253 259 288 292 287 291 279 279 256 237 215 189 261 241 248 263 269 245 244 242 190 261 241 226 255 243 219 212 203 211
339 337 335 333 331 328 325 324 321 317 308 308 305 291 256 280 287 279 289 293 322 318 255 270 233 230 230 309 308 231 215 242 244 233 216 170 253 227 220 232 244 212 221 212 221
335 333 333 332 330 327 326 323 318 315 310 308 309 249 264 287 256 288 50 329 315 310 311 264 231 226 170 225 250 222 243 237 252 216 208 199 260 225 205 219 240 231 219 219 226
331 332 330 330 328 325 325 322 320 314 315 316 308 300 271 260 282 319 316 315 324 305 297 254 235 217 218 207 226 231 229 219 191 190 211 234 248 236 210 217 226 228 217 228 227
333 328 328 327 325 324 325 333 356 331 17 273 257 262 277 278 293 293 287 294 283 269 251 255 244 227 217 218 228 239 239 239 233 238 196 224 247 236 226 234 232 234 218 225 234
327 329 327 327 326 323 320 351 308 295 304 256 254 256 254 271 287 285 281 174 263 266 289 253 252 231 231 225 223 228 238 246 259 229 240 251 257 240 222 234 243 239 242 231 231
329 329 328 327 325 317 322 309 329 322 287 294 260 256 254 208 229 269 190 212 227 276 255 241 250 242 235 233 234 236 238 240 240 216 237 234 265 251 241 234 252 246 236 238 225
327 328 328 328 326 318 303 328 325 318 287 271 269 270 183 245 264 228 252 244 225 239 260 243 260 243 254 256 222 234 225 232 239 235 242 171 261 246 236 235 236 247 238 240 223
327 327 326 327 307 303 303 321 325 355 312 275 297 220 333 275 277 297 260 188 251 247 226 251 232 232 241 237 224 229 218 217 224 234 243 218 252 246 217 232 228 242 250 229 234
326 325 324 324 311 295 314 322 350 49 258 308 302 327 326 312 299 276 265 221 242 255 251 247 244 216 203 293 224 229 197 216 217 217 235 231 221 255 206 223 237 240 249 234 233
327 323 320 311 275 308 320 358 19 140 326 294 319 318 310 300 296 274 296 284 251 287 264 271 233 240 248 248 253 254 196 215 219 216 236 220 221 238 220 233 236 238 242 239 225
326 323 323 320 313 319 360 47 109 247 259 302 302 304 282 276 263 274 287 282 270 242 280 292 317 166 187 203 213 207 237 207 210 192 226 161 209 229 223 246 236 242 238 254 232
328 328 317 324 310 350 59 48 216 245 297 308 316 301 287 277 273 339 238 250 250 236 294 304 286 305 208 186 194 192 224 325 319 4 63 201 280 309 175 232 235 247 240 255 251
328 316 304 299 318 310 82 248 227 257 303 305 291 251 287 295 302 329 301 244 273 248 201 275 288 309 265 114 204 180 166 196 220 215 217 244 263 217 223 216 229 247 237 284 296
315 352 260 304 316 57 191 232 271 289 305 274 288 287 286 291 237 240 271 287 237 302 304 255 238 293 282 192 180 187 218 171 120 169 85 46 267 214 237 217 237 262 300 296 282
311 312 273 325 17 320 247 211 295 296 299 274 265 272 278 287 278 262 252 252 343 335 308 222 269 270 255 201 250 183 234 184 135 221 221 156 266 244 184 271 289 309 307 305 3
253 235 308 128 263 267 290 282 253 285 291 302 278 289 320 314 303 238 273 286 324 343 297 314 284 307 337 43 26 147 197 161 141 106 197 147 262 19 9 4 336 295 306 325 341
305 286 307 346 160 233 279 267 283 265 275 267 283 288 330 310 253 285 302 311 328 299 308 307 309 311 298 309 296 273 53 245 214 192 178 214 268 351 355 341 321 322 342 331 15
243 245 204 275 261 230 164 268 296 311 241 305 293 315 324 307 282 256 288 298 288 301 353 51 274 285 297 290 292 43 22 342 322 73 224 240 140 37 335 316 311 297 333 350 332
285 306 233 278 289 288 272 262 292 296 282 301 284 309 310 295 287 294 294 292 278 313 26 337 274 357 300 349 13 65 13 18 41 355 22 338 355 11 312 344 350 348 333 333 313
253 258 274 323 287 211 250 257 293 311 295 279 295 305 299 282 264 275 279 272 258 275 296 295 325 348 274 32 52 24 349 13 82 31 341 24 315 327 336 344 4 357 345 296 267